Weather in Przemysl

Poland     49°47′02″N   22°47′20″E
temp.,
°C
wind,
m/s
gust,
m/s
humid.,
%
clouds,
%
prec.,
mm/h
press.,
hPa
HPBL,
m
10 may, mon
mon1023:00+8s33868 0.0 102154
02:00+6sse2290100 0.0 102129
05:00+6sse228760 0.0 102023
08:00+13se24645 0.0 1020243
11:00+20se35462 0.0 10191112
14:00+23se34405 0.0 10171556
17:00+22ese45565 0.0 1016980
20:00+14se349027 0.0 101868
11 may, tue
tue1123:00+11sse22895 0.0 101820
02:00+9sse11863 0.0 101815
05:00+8ese22895 0.0 101732
08:00+14ese35728 0.0 1017278
11:00+19ese56605 0.0 1016620
14:00+21ese78573 0.0 1014712
17:00+20ese711650 0.0 1013657
20:00+15ese614730 0.0 1013474
12 may, wed
wed1223:00+12ese513750 0.0 1013383
02:00+10ese412780 0.0 1012304
05:00+8ese39835 0.0 1012197
08:00+13ese612700 0.0 1011446
11:00+18ese811654 0.0 10101154
14:00+19ese8106450 0.0 10091416
17:00+16ese710744 0.1 10081142
20:00+12ese613760 0.2 1007841
13 may, thu
thu1323:00+9ese613840 0.0 1006511
02:00+7ese369728 0.0 1005198
05:00+7se229714 0.0 100337
08:00+14se237795 0.0 1002312
11:00+18ssw3466100 0.3 10011144
14:00+15ssw51083100 1.8 1001646
17:00+16s4879100 0.9 1001737
20:00+13nw2385100 0.9 100362
14 may, fri
fri1423:00+12ese1291100 0.0 100329
02:00+10s2295100 0.0 100418
05:00+8ssw1189100 0.0 100523
08:00+15sw4106318 0.0 10051043
11:00+17wsw695388 0.0 10061818
14:00+16wsw466092 0.1 10081346
17:00+15nw366897 0.2 1008934
20:00+12nw1187100 0.4 101016